Theta_e
327 326 328 327 324 320 322 324 322 325 326 324 324 323 323 323 324 326 326 327 327 327 327 327 329 330 330 330 330 330 330 329 327 326 325 323 319 316 313 310 309 310 310 310 310 311 312 313 314 315 317 318 319 320 320 320 320 320 320 320 320 320 320 320 319 319 317 316 315 314 313 312 312 312 312 313 314 315 315 315 315 315 314 313 312
328 327 330 327 322 320 321 322 321 324 326 324 324 324 324 324 323 324 325 326 328 328 328 329 330 331 331 330 330 330 330 329 328 327 326 324 320 315 313 311 311 313 313 314 315 315 316 317 318 319 320 321 321 321 321 321 321 321 321 322 322 321 322 321 320 319 318 317 315 314 312 312 312 312 312 313 314 315 316 317 318 318 318 317 316
330 330 331 325 320 320 319 320 320 324 327 326 325 325 325 325 324 325 326 327 328 329 329 330 331 332 331 331 330 330 330 328 328 327 326 325 320 314 313 312 312 313 316 318 319 319 320 321 321 322 323 323 322 322 322 321 321 321 322 322 322 322 322 322 322 320 319 317 315 314 313 313 312 312 313 313 313 314 315 316 317 318 319 320 320
331 331 329 324 321 321 319 318 319 323 328 327 326 326 326 326 326 326 327 328 329 329 330 329 331 332 331 331 330 330 330 328 328 327 326 324 318 313 313 312 311 313 316 320 322 324 325 325 324 324 324 324 323 323 322 322 322 322 322 322 322 323 323 323 323 322 320 319 318 317 317 317 317 317 317 316 316 316 315 316 316 317 318 319 320
331 331 328 325 325 325 322 320 319 322 327 327 327 328 327 327 326 326 327 329 329 330 330 329 330 331 330 331 330 330 330 328 329 327 325 322 315 311 310 309 310 312 316 321 324 325 326 326 326 327 326 325 325 325 325 324 324 324 323 323 322 323 323 323 323 323 322 321 320 321 321 322 322 322 322 322 321 320 319 318 317 317 317 317 319
332 330 328 329 329 328 327 326 325 326 326 326 327 328 327 326 326 328 329 329 330 330 330 330 330 331 330 330 329 330 329 329 329 326 324 320 313 309 309 309 312 316 319 322 324 324 325 326 327 327 327 327 327 327 327 327 326 326 325 323 323 323 324 323 323 323 323 323 323 323 323 323 323 324 324 324 323 323 323 321 320 319 318 318 318
332 331 330 330 330 330 330 330 330 330 329 327 327 328 327 327 327 329 330 330 330 330 330 330 330 331 330 329 329 329 329 329 328 325 323 320 315 311 311 313 317 320 322 323 324 324 325 325 326 326 327 327 327 327 327 327 327 327 326 325 324 324 324 324 324 324 324 324 323 323 324 324 324 324 324 323 323 323 323 323 323 322 321 320 319
331 332 331 330 330 331 331 331 331 332 331 331 330 329 329 329 330 330 330 330 330 330 330 330 330 330 329 329 328 329 329 329 327 325 324 322 319 317 316 318 320 321 323 324 324 324 323 323 323 324 325 326 326 327 326 326 327 326 326 325 325 325 324 325 325 325 324 324 324 323 323 323 325 325 324 324 324 323 323 322 322 322 322 321 321
331 331 331 330 330 331 331 331 332 332 332 332 331 331 331 331 331 331 331 331 331 330 330 330 330 330 329 328 329 329 329 328 327 326 324 323 321 319 319 320 322 323 323 324 323 322 322 322 321 322 323 325 325 325 326 326 325 325 325 325 324 323 324 324 324 324 325 325 325 323 323 324 326 326 324 324 324 323 322 321 320 321 322 322 322
331 331 330 330 330 331 331 330 331 332 332 332 332 331 331 331 331 331 332 332 331 330 330 330 330 329 329 329 329 329 329 328 327 327 325 324 322 320 320 321 322 323 323 323 322 322 322 321 321 321 322 324 324 325 325 325 325 325 325 324 322 321 322 323 323 324 325 326 326 324 323 325 326 325 324 322 320 319 320 320 320 321 322 322 323
331 331 330 331 330 329 330 329 329 331 332 332 331 331 332 331 331 331 331 331 331 330 330 329 329 329 329 329 329 329 328 328 328 327 326 325 323 322 322 322 323 323 323 322 322 321 321 320 320 320 321 323 323 324 325 324 324 324 323 321 320 320 321 322 323 323 324 326 325 324 323 324 325 323 319 315 311 312 317 319 319 321 322 323 323
331 331 331 331 331 329 329 328 327 330 332 331 331 331 332 331 331 332 331 331 330 330 329 329 329 329 329 329 329 328 328 328 328 327 327 326 324 324 323 323 323 323 322 323 322 320 319 319 318 319 320 321 321 323 323 323 323 322 322 321 321 321 321 322 323 323 324 325 324 323 323 323 320 316 311 309 306 308 315 318 319 322 322 321 320
331 331 331 331 332 330 329 329 327 330 331 331 331 331 331 331 332 331 330 330 330 330 329 329 329 329 329 329 328 328 328 328 327 327 327 326 325 325 324 323 323 323 323 323 322 320 318 317 317 317 317 318 320 322 323 323 322 320 320 321 321 322 322 322 323 323 324 324 323 322 320 317 313 309 307 306 305 307 312 314 316 319 318 316 314
331 331 331 332 331 329 329 329 328 329 331 331 330 330 330 331 332 331 330 330 330 330 329 329 329 329 328 329 328 328 328 328 327 327 326 327 326 325 324 323 323 322 323 323 322 322 320 319 318 316 314 315 318 321 322 321 317 314 315 317 320 321 321 321 322 322 321 321 320 317 314 310 308 306 306 305 305 306 307 308 309 310 310 309 308
331 331 332 331 330 329 329 329 328 330 330 329 329 329 330 331 331 331 330 330 330 329 329 329 329 328 328 328 328 328 328 328 328 326 325 326 326 325 324 323 323 323 324 324 324 324 323 322 320 316 313 314 316 318 319 317 313 308 308 312 317 319 319 320 320 318 317 316 314 311 308 306 306 306 305 305 305 304 304 305 305 305 304 304 305
330 331 332 332 331 330 329 328 328 330 329 326 326 328 329 330 331 331 330 330 330 329 329 329 328 328 328 328 327 327 328 328 327 326 325 325 325 324 324 323 323 324 325 324 324 324 323 322 319 316 315 315 315 316 316 314 311 306 305 307 311 313 314 315 314 312 311 310 308 307 306 306 306 305 305 303 303 302 302 302 302 302 302 302 302
330 331 332 331 331 331 329 328 328 330 330 326 325 327 328 330 331 331 330 329 329 328 329 329 329 328 327 327 327 327 327 327 326 326 326 326 326 325 324 324 324 325 325 325 325 324 323 321 319 317 318 318 317 316 315 313 309 305 304 306 307 307 308 308 307 307 307 306 306 306 306 306 305 304 303 302 302 301 301 301 301 301 301 301 301
330 331 332 331 331 332 330 330 330 331 330 327 325 326 327 329 331 331 331 330 329 328 328 328 329 329 328 327 326 326 327 326 326 326 326 327 326 325 325 325 325 325 325 325 324 323 322 322 320 318 320 321 319 317 315 311 307 305 305 306 306 306 306 306 306 306 306 306 306 306 305 304 303 302 302 301 301 301 301 301 301 300 300 300 300
330 331 330 329 329 330 330 331 330 330 330 328 326 327 327 329 331 331 330 330 329 328 328 328 328 329 328 327 326 326 326 326 326 326 326 327 326 325 325 326 325 324 324 323 322 322 320 321 320 318 319 320 319 316 312 308 305 306 307 306 306 306 306 306 306 306 306 306 306 304 303 302 302 301 301 301 301 301 301 300 300 300 300 300 300
330 330 328 327 327 328 330 331 329 328 329 328 327 327 328 329 330 330 329 329 329 328 328 328 328 328 328 327 326 327 326 325 325 325 325 326 327 326 326 326 325 324 323 322 321 320 319 319 318 317 318 317 317 314 307 304 306 307 307 306 306 306 306 307 306 306 306 305 303 302 302 301 301 301 301 301 301 301 301 301 301 301 300 300 300
329 330 329 327 327 329 330 329 328 327 328 328 327 327 328 329 329 329 328 328 329 329 329 328 327 327 327 327 327 327 327 325 325 325 325 326 326 326 325 325 325 324 323 322 321 319 318 318 317 317 318 315 312 310 305 304 307 307 307 306 306 307 307 306 306 305 303 302 302 301 302 302 302 301 301 301 301 301 301 301 301 301 301 301 300
329 329 326 326 329 330 329 328 328 328 328 328 327 327 327 328 328 328 327 328 328 328 329 328 328 327 327 327 326 327 327 325 325 325 325 325 325 325 325 324 324 323 322 323 322 319 318 318 317 317 317 313 308 305 304 305 307 307 307 307 307 307 306 305 303 302 302 301 301 302 302 302 302 302 302 301 301 301 301 301 301 301 301 301 301
327 326 325 327 329 329 328 327 328 329 329 328 327 326 326 327 328 328 327 328 328 328 329 329 328 327 327 326 326 327 327 325 325 325 325 325 324 325 324 323 323 323 323 323 321 319 318 318 317 315 314 311 307 304 305 307 307 307 307 307 307 306 304 303 302 301 302 302 302 302 302 302 302 302 302 302 302 302 302 302 301 301 301 301 301
326 325 327 328 328 329 329 328 329 329 329 329 328 327 326 327 328 328 328 328 328 329 329 329 329 328 327 327 327 327 327 326 325 325 325 325 324 324 324 323 323 323 324 323 320 319 318 318 317 315 312 309 306 305 306 307 308 307 307 307 306 305 303 302 301 302 302 302 303 303 303 303 303 302 302 302 302 302 302 302 302 302 302 302 302
327 325 326 327 328 330 330 329 329 329 329 328 328 327 327 327 327 328 328 328 328 329 329 329 329 328 328 327 327 327 327 326 326 325 325 325 325 324 324 323 323 324 324 322 320 319 318 317 316 315 313 309 307 306 306 308 308 307 307 307 306 304 303 302 302 302 303 303 303 303 303 303 303 303 303 303 302 302 302 302 302 302 302 302 302
328 326 326 328 329 330 330 330 329 329 329 329 328 328 328 327 327 327 328 328 328 328 329 329 328 328 328 328 328 328 326 326 326 325 325 326 325 325 324 323 323 324 324 322 319 319 318 317 315 314 313 310 307 306 307 308 308 307 307 307 306 304 303 302 302 303 304 304 304 304 303 303 303 303 303 303 303 303 302 302 302 302 302 302 302
329 328 327 327 328 329 330 330 330 329 329 329 328 328 328 327 327 328 328 328 328 328 328 329 328 327 328 328 328 328 326 326 326 326 326 326 325 325 324 324 324 324 322 320 319 318 317 316 315 313 312 310 308 307 307 308 308 307 308 307 306 304 303 302 303 304 305 305 304 304 304 304 304 304 304 304 304 304 304 304 304 304 304 304 305
328 327 326 327 328 329 329 330 330 329 329 329 329 328 328 327 326 327 328 328 328 328 328 328 327 327 327 328 328 327 326 325 326 326 326 326 326 325 324 323 323 322 320 319 318 318 317 316 314 312 311 310 308 308 308 308 308 307 308 308 306 304 303 302 303 305 305 305 305 305 304 304 305 305 305 305 306 306 307 307 307 308 308 309 310
326 325 325 328 330 330 328 328 330 329 329 329 328 328 328 327 326 327 328 329 329 329 328 328 328 327 327 327 327 327 326 325 326 327 327 326 326 326 325 324 323 321 320 319 318 318 317 316 313 311 310 310 309 308 308 309 308 307 308 308 306 304 303 302 303 305 306 306 306 305 305 305 306 306 307 308 309 310 310 311 311 312 312 312 312
325 324 324 326 329 330 328 327 328 329 329 328 328 328 328 327 327 328 329 330 330 329 329 329 328 328 327 327 326 326 326 325 325 326 327 326 326 326 325 325 324 322 321 320 318 318 317 315 312 311 310 309 308 308 309 309 309 308 308 308 307 305 304 303 304 305 307 307 307 306 306 306 307 308 309 310 312 312 312 312 313 313 313 313 313
326 325 325 327 328 327 327 327 327 328 328 327 327 328 328 328 329 329 329 330 330 329 329 328 328 328 328 327 326 326 326 325 325 326 327 326 326 326 326 326 324 323 323 321 318 316 315 313 311 310 310 309 307 308 309 309 309 308 308 308 308 306 305 304 304 305 307 308 309 308 307 307 309 310 311 312 312 313 313 313 313 313 313 313 313
327 324 325 327 326 325 327 327 327 327 327 326 327 328 328 329 330 330 329 329 329 329 329 328 328 328 328 328 327 326 326 326 326 326 326 326 326 326 326 326 325 324 324 323 320 316 313 312 311 310 310 310 309 308 308 308 308 308 308 308 308 308 307 306 305 305 307 308 309 309 308 308 310 311 312 313 313 313 313 312 313 313 313 313 313
326 324 323 324 324 326 328 327 328 328 327 327 328 328 329 330 330 330 329 329 329 329 329 328 328 328 328 328 328 328 327 326 326 326 326 326 326 326 326 326 325 325 325 323 320 317 314 312 312 311 310 310 309 309 308 308 308 308 307 307 308 308 308 308 307 306 306 307 309 310 309 309 311 312 312 313 313 312 312 312 312 313 313 313 313
324 324 322 322 323 326 328 328 329 329 329 329 329 329 329 329 330 330 329 329 328 328 328 329 328 327 327 327 327 328 327 327 326 326 326 326 325 325 325 325 326 325 324 323 322 320 316 312 312 311 311 310 309 309 309 309 309 309 308 308 308 308 309 308 308 308 307 307 307 309 310 310 311 312 312 312 312 312 312 312 312 313 313 313 313
323 322 323 323 323 326 328 328 328 329 330 329 328 328 328 328 329 330 329 328 328 328 328 327 327 327 326 326 326 327 327 327 326 326 326 326 326 325 325 325 326 325 325 323 323 321 317 313 311 311 311 311 310 309 309 310 310 310 309 308 308 309 309 309 309 309 309 308 308 308 309 310 311 312 312 312 312 312 312 312 312 312 313 313 313
322 323 323 324 325 327 327 325 326 327 328 327 326 326 326 327 328 328 328 327 327 327 327 327 327 326 326 326 326 326 326 326 326 326 326 325 325 325 325 325 325 325 325 324 322 320 317 315 314 313 311 311 311 310 309 310 311 311 310 309 309 309 310 310 310 310 310 309 309 309 309 309 310 311 312 312 312 312 312 312 312 312 312 313 313
326 325 325 324 325 326 325 323 322 324 324 323 323 323 324 325 326 326 326 326 326 327 326 326 327 327 327 327 327 327 326 325 325 325 325 324 324 325 325 325 325 325 325 324 322 320 320 320 320 318 314 311 311 311 310 310 311 311 311 311 310 310 311 311 311 312 311 311 311 311 311 311 311 311 312 312 312 312 313 313 313 313 313 313 313
328 325 324 326 326 325 324 323 322 322 321 320 320 321 322 323 324 325 325 325 325 325 325 325 326 326 327 327 327 326 326 325 324 325 324 323 323 324 326 325 326 326 325 323 323 323 323 322 320 318 316 312 311 311 310 310 311 311 311 312 312 312 312 312 312 313 313 313 312 312 312 312 312 312 312 312 313 313 313 313 313 313 313 313 313
328 326 325 326 326 324 324 324 322 321 319 319 319 319 320 320 321 323 324 325 326 325 325 325 326 326 326 326 326 326 326 325 325 325 324 324 324 325 326 325 325 325 324 323 324 324 324 321 317 315 314 313 312 312 311 310 310 311 311 312 312 312 313 313 313 314 314 314 314 313 313 313 313 312 312 312 313 313 313 313 313 313 313 313 313
327 328 327 326 324 325 326 325 322 320 320 320 320 320 320 319 320 322 324 325 326 326 326 326 326 326 326 326 326 326 326 326 325 325 325 325 325 325 326 325 324 324 324 323 323 323 322 319 315 314 314 312 312 312 311 311 310 311 312 312 313 314 314 313 314 314 314 314 314 313 313 313 313 313 313 313 313 313 313 314 314 313 313 313 313
326 328 328 326 323 325 327 325 322 321 322 322 322 321 321 320 321 322 323 324 325 326 326 326 326 326 326 326 325 325 325 325 326 326 326 325 325 326 325 325 324 324 324 323 323 323 321 317 315 315 314 312 312 312 312 312 313 313 313 313 313 314 314 314 314 314 314 314 314 314 314 314 314 314 314 314 314 314 314 314 314 314 314 314 313
326 327 327 325 323 325 327 325 323 323 323 323 323 322 322 322 322 323 323 324 325 325 326 327 326 326 325 324 323 323 324 325 326 326 326 326 326 325 325 325 324 324 324 323 323 322 320 317 315 314 314 313 313 313 313 314 314 314 314 314 314 315 314 314 314 314 314 314 314 314 315 314 314 314 314 314 314 315 314 314 314 314 314 314 314
326 326 326 323 322 325 326 325 324 324 323 323 324 323 322 323 323 323 323 324 325 326 326 326 325 325 323 322 322 322 323 324 325 326 325 326 326 325 325 324 323 323 323 322 321 321 319 318 315 314 314 314 314 314 314 315 315 315 315 315 315 315 315 314 314 314 314 314 314 314 315 315 315 315 315 315 315 315 315 315 315 315 315 315 315
325 325 324 321 321 323 325 325 325 324 323 323 323 322 322 323 324 324 324 325 326 326 326 326 325 324 322 322 322 322 322 323 325 325 325 325 325 325 325 324 322 321 322 321 320 319 318 317 315 314 313 314 314 314 314 314 315 315 316 316 316 316 315 314 314 314 315 314 314 315 315 316 316 316 316 316 316 316 316 316 316 316 316 315 315
326 325 322 321 322 324 325 325 325 325 324 323 323 321 321 322 323 324 325 324 324 324 325 325 325 323 322 322 322 321 321 322 324 325 325 324 324 324 324 323 321 320 320 320 319 318 317 316 315 314 314 314 314 314 314 315 315 316 316 316 317 316 316 315 315 316 316 316 316 316 316 317 316 317 317 316 316 317 317 317 317 317 317 317 317
326 324 321 322 324 325 325 325 325 324 324 323 322 321 321 322 322 323 323 322 322 323 323 323 323 322 322 322 322 321 320 320 321 322 323 324 324 322 321 320 321 321 319 319 318 317 315 315 315 315 315 315 315 316 316 317 317 317 317 317 317 317 317 317 317 317 317 317 317 317 317 317 317 316 316 316 316 316 316 316 317 317 317 317 317
325 323 322 324 325 325 325 325 324 324 323 323 323 322 321 321 321 322 322 322 322 322 321 321 321 321 321 322 322 321 320 320 319 320 321 321 321 321 319 319 320 321 320 319 319 317 316 316 317 317 317 317 317 318 318 318 318 318 317 317 317 316 317 317 317 317 317 316 316 316 316 316 315 315 315 315 315 314 314 314 314 315 315 315 315
324 324 324 325 325 325 325 324 323 323 323 323 323 322 322 322 321 321 322 322 321 321 321 320 321 321 322 322 322 320 319 319 319 319 320 320 319 319 318 318 319 320 319 318 319 319 319 319 319 319 318 318 318 318 318 318 317 317 316 316 316 315 315 315 315 315 315 315 315 315 315 315 315 315 315 315 315 315 315 315 314 314 314 314 314
324 324 323 323 324 324 323 322 322 322 322 322 323 322 322 322 322 321 321 321 321 321 320 320 320 320 321 321 320 320 320 320 320 319 319 319 318 317 316 316 317 318 317 316 317 318 318 318 318 319 319 318 318 318 318 318 318 317 317 316 316 316 316 316 315 315 315 315 315 315 315 315 315 315 315 314 314 314 313 313 313 313 313 313 313
324 323 321 322 322 322 321 321 320 321 321 321 321 321 321 321 321 321 321 321 321 320 320 320 319 319 320 320 320 320 320 319 319 319 319 318 317 317 316 316 316 317 317 317 317 316 316 317 317 317 318 318 318 318 318 318 318 318 318 317 317 316 316 316 316 315 315 315 314 313 312 311 311 310 309 309 308 308 308 307 308 308 309 309 309
323 321 319 320 321 320 319 319 319 319 320 319 319 319 320 320 320 320 320 320 320 320 320 319 319 319 319 319 319 320 320 319 319 319 318 318 317 317 317 317 318 318 318 318 318 318 317 317 318 318 318 318 318 318 318 318 318 318 317 317 316 315 315 314 313 312 311 311 310 309 308 308 307 306 306 306 306 306 306 307 307 308 308 308 309
Wind_Speed
12 13 12 11 10 11 15 16 17 20 21 21 21 21 23 23 22 21 18 16 15 12 10 8 6 3 3 2 1 1 3 4 6 7 6 5 5 3 3 6 9 10 10 11 12 11 12 12 12 12 12 12 12 13 13 12 12 12 11 11 10 10 10 10 10 9 9 10 10 10 10 10 11 11 11 12 13 13 14 14 15 15 16 16 17
12 13 12 10 10 12 14 16 18 20 21 21 21 21 22 22 21 20 18 16 15 12 10 9 8 5 4 4 3 1 1 2 4 5 5 5 4 3 4 5 8 11 12 13 13 12 12 12 11 11 11 11 11 11 11 10 10 10 9 9 8 8 8 8 8 8 8 9 9 10 10 11 11 11 11 12 12 13 14 14 14 15 16 16 17
12 12 11 10 11 11 13 16 20 22 22 21 21 21 21 20 19 18 18 17 14 12 11 10 9 7 5 5 5 4 2 2 3 4 4 4 3 3 3 4 6 10 12 13 12 11 11 10 10 10 9 9 9 9 9 9 8 8 7 7 6 7 7 7 7 7 8 8 9 10 11 11 11 11 12 12 12 13 13 13 14 15 15 16 16
13 12 11 11 11 11 12 14 18 21 21 20 20 21 20 20 19 18 17 16 13 11 11 11 10 7 7 7 6 5 4 2 2 2 3 3 3 3 3 4 6 9 12 12 10 8 7 7 7 7 7 6 7 7 7 8 8 7 7 6 6 6 6 7 7 7 7 8 8 9 10 11 11 11 11 11 12 12 12 12 13 14 14 15 16
13 12 12 12 11 12 12 13 16 19 20 20 20 20 20 20 19 18 17 15 12 10 10 10 9 8 8 7 7 6 5 3 1 1 3 3 3 4 5 6 7 10 12 11 10 8 6 5 5 4 4 4 5 5 5 6 7 7 6 6 5 6 6 7 7 7 7 7 7 7 8 9 10 11 10 10 10 11 11 11 11 12 13 13 14
15 14 14 13 13 13 14 14 15 17 18 20 20 20 20 19 18 18 16 14 11 10 9 10 10 9 8 8 7 6 5 4 2 3 3 4 5 6 8 8 9 11 11 10 9 8 6 5 4 3 3 2 2 3 3 4 5 5 6 5 5 5 5 5 6 6 6 6 6 6 7 8 9 9 9 9 9 9 10 10 10 11 12 12 13
17 17 17 16 15 15 15 16 16 16 17 18 20 20 19 18 17 17 15 13 11 9 9 9 10 9 9 8 7 7 6 5 4 5 5 5 7 8 9 10 10 10 9 8 8 7 5 5 4 4 3 2 1 2 2 2 3 4 4 5 5 5 4 4 4 5 5 5 5 6 6 7 8 9 9 9 9 9 10 10 10 10 11 11 12
20 19 19 18 17 17 17 17 17 17 17 18 18 19 18 16 15 13 12 11 10 10 9 9 9 10 9 9 8 8 7 5 5 5 6 7 8 8 9 9 9 9 8 7 7 6 5 4 4 3 3 2 1 2 2 1 2 2 3 4 5 4 4 3 3 3 3 4 5 6 6 6 8 8 9 10 10 11 11 11 10 10 10 11 11
21 20 20 20 18 17 18 19 19 18 18 19 18 17 16 14 12 11 9 8 9 10 11 10 10 10 10 9 9 9 7 6 6 5 6 8 8 8 8 9 8 8 8 7 6 5 4 3 2 2 2 2 2 2 3 2 3 3 3 3 4 4 3 3 2 2 2 2 4 6 6 7 7 7 8 9 9 10 11 11 12 11 11 11 11
22 21 20 20 19 17 17 17 18 19 18 17 16 15 14 12 11 10 9 8 10 11 12 11 11 11 11 10 10 9 8 7 7 6 7 7 7 8 8 8 8 7 7 6 5 4 3 2 2 2 3 3 3 4 4 4 4 4 4 4 4 3 2 2 2 1 1 1 2 4 5 5 6 5 6 6 7 8 8 9 12 12 12 12 11
23 23 21 20 19 18 17 17 17 18 17 15 15 14 14 13 12 11 11 10 11 12 12 13 13 13 12 12 10 9 8 8 7 7 7 7 7 8 7 7 7 6 5 5 4 3 2 2 3 3 4 4 4 4 5 5 6 5 4 4 4 4 4 3 2 1 1 2 2 3 4 5 5 5 6 7 7 7 6 8 9 10 10 10 10
25 24 22 20 20 19 19 18 19 19 18 15 15 15 15 14 13 13 12 12 12 13 13 13 14 14 13 12 11 10 9 8 8 8 7 7 7 7 7 6 5 5 5 4 4 3 3 4 5 5 5 5 5 5 6 6 6 6 5 5 5 5 5 5 4 3 3 3 3 4 5 6 6 6 7 7 7 7 8 8 7 8 8 7 8
26 25 23 21 21 21 20 20 19 19 17 15 15 15 16 15 13 13 13 14 14 15 14 14 15 16 15 13 11 10 9 9 9 9 8 8 8 7 6 6 6 6 5 5 4 4 4 5 6 7 6 6 6 6 6 5 5 5 5 5 6 6 6 6 6 5 5 5 5 6 7 7 6 6 7 7 7 7 8 7 6 6 6 6 7
27 26 23 21 22 21 21 20 18 17 16 16 16 16 16 16 15 14 14 15 15 15 15 15 17 18 16 14 12 10 9 9 10 9 9 9 9 8 7 6 7 6 6 6 5 4 4 6 7 7 6 6 6 6 5 4 4 4 4 4 5 6 5 5 6 6 6 7 7 7 7 6 6 6 7 7 7 7 7 7 6 6 6 7 7
28 27 24 22 21 21 21 20 18 17 17 18 18 18 18 17 16 15 15 16 15 14 14 15 16 16 16 14 13 12 11 10 10 9 9 10 10 9 8 8 7 7 7 6 5 4 4 5 6 6 6 6 6 5 3 3 4 4 4 4 5 6 5 5 5 6 7 7 7 7 6 6 6 7 7 7 7 7 7 7 7 7 7 8 7
29 28 26 24 22 21 21 19 19 19 18 18 18 19 19 18 17 16 16 16 16 15 15 15 15 14 14 14 14 14 12 12 13 11 10 10 11 10 9 8 8 8 8 6 5 4 4 5 5 5 5 5 5 4 3 3 4 4 4 5 5 6 5 5 5 6 6 6 6 6 6 6 6 6 7 7 7 7 7 7 8 8 8 8 8
29 28 27 24 23 23 21 19 19 19 18 18 18 18 19 18 17 17 17 15 15 15 16 16 15 14 13 12 12 13 14 15 14 12 11 12 11 10 10 9 9 9 9 7 6 5 4 5 4 4 4 4 4 4 3 2 3 4 4 5 4 4 4 4 4 5 5 6 6 6 6 6 6 6 6 7 7 8 8 8 8 9 9 9 9
28 28 26 24 24 23 22 21 19 18 19 19 18 18 18 18 17 17 16 15 14 14 15 16 16 15 14 12 9 9 14 18 17 13 13 12 12 11 10 10 10 10 9 8 7 6 5 4 3 2 2 3 2 2 2 1 2 4 5 5 4 4 3 3 4 5 5 5 5 6 6 6 6 6 6 7 7 7 8 8 8 8 8 8 8
27 27 25 24 24 23 22 21 19 18 19 20 19 19 18 17 16 16 15 15 15 15 15 16 17 16 15 15 12 8 11 18 19 17 17 15 13 13 12 12 11 11 9 7 6 5 4 4 3 2 1 1 0 1 1 1 3 5 5 5 4 4 3 3 4 4 5 5 5 5 5 5 6 6 6 6 7 7 7 7 8 8 8 8 9
27 25 24 22 23 22 22 20 19 19 20 21 20 19 18 17 15 15 15 15 15 14 14 15 17 17 16 17 14 6 9 17 17 16 18 18 17 15 14 14 12 10 9 6 5 3 3 3 4 3 1 1 2 1 1 3 5 5 4 4 4 4 3 3 3 4 4 5 5 5 5 5 5 6 6 6 7 7 7 8 8 9 9 10 10
27 26 23 22 22 22 21 20 20 20 20 21 21 19 19 18 16 16 16 16 16 15 14 15 16 16 16 19 16 8 9 16 16 14 15 17 20 19 17 18 16 12 10 8 5 3 2 3 4 3 1 1 2 2 4 5 5 4 4 4 4 4 4 3 3 4 4 4 4 5 5 5 5 6 6 7 7 8 8 9 9 10 10 11 11
27 26 23 23 24 23 20 20 20 19 19 21 22 21 20 19 17 16 16 17 17 16 15 14 16 16 17 19 18 12 12 18 19 17 16 16 18 20 20 19 18 15 13 10 7 4 3 4 4 2 0 1 1 3 5 5 5 4 3 3 4 4 4 4 4 4 4 4 4 4 5 5 5 6 6 7 7 8 8 9 9 10 10 10 11
26 25 25 25 24 21 18 18 19 19 20 21 22 21 20 19 18 17 17 18 18 17 16 15 17 18 18 19 19 15 12 16 18 18 18 17 16 19 21 19 16 15 14 12 9 6 5 5 4 3 2 1 2 4 5 5 5 3 3 3 4 4 5 5 5 5 5 4 4 4 4 5 5 5 6 6 6 7 7 8 8 8 9 9 9
25 24 25 25 23 19 18 19 20 20 21 22 22 21 20 19 19 18 19 20 19 18 18 17 18 19 20 19 18 14 11 13 16 16 17 16 14 17 20 19 17 16 14 12 10 9 6 5 4 2 1 1 2 4 5 4 4 3 3 4 4 5 5 5 5 5 5 4 4 4 4 4 4 4 5 5 5 6 6 6 6 6 7 7 7
26 25 24 23 21 19 19 20 20 21 21 22 22 21 20 20 20 20 20 21 20 20 18 18 18 19 20 20 18 15 11 12 15 15 16 16 15 15 18 19 18 17 15 13 11 11 9 7 5 3 1 0 2 4 4 4 3 3 4 4 4 5 6 6 6 5 5 4 4 3 3 3 3 4 4 5 5 6 6 6 6 6 7 7 7
26 25 23 22 20 20 19 19 20 21 21 23 22 20 20 21 20 20 20 21 21 20 19 18 18 19 20 20 18 15 12 12 15 15 15 17 16 15 17 19 18 17 16 15 14 13 10 9 8 6 3 2 3 4 5 4 4 4 4 4 5 6 7 7 6 5 5 4 4 3 3 3 3 3 4 4 5 6 6 7 7 7 8 8 8
26 24 23 22 21 21 19 18 20 21 22 23 23 21 21 21 21 21 21 21 22 21 20 19 19 20 21 21 18 16 14 13 15 15 14 16 15 15 17 19 19 18 17 16 16 14 11 9 9 8 6 4 4 5 5 5 5 5 4 5 6 7 7 7 6 6 6 5 4 3 3 3 3 3 4 4 5 6 6 7 7 8 8 9 9
25 24 22 20 20 21 20 20 21 22 23 23 23 22 22 22 22 21 21 22 22 22 21 20 20 20 21 21 19 16 14 14 15 14 14 15 15 14 16 18 19 20 19 19 18 16 13 11 10 9 8 7 6 6 7 6 5 5 5 5 6 7 7 7 7 7 7 6 5 3 3 3 3 3 4 4 4 5 5 6 7 7 8 8 9
23 21 19 19 19 21 22 22 22 23 24 23 23 23 23 23 22 22 22 21 22 22 21 19 19 19 20 20 19 17 16 15 15 14 14 15 15 15 16 17 17 17 19 19 19 17 15 13 11 10 10 9 8 8 8 7 6 6 5 5 6 7 8 8 8 8 7 6 5 4 3 3 2 3 3 3 3 4 4 5 6 6 7 8 9
21 19 18 19 20 21 22 23 23 23 23 23 23 24 24 23 23 22 21 21 21 20 19 18 18 18 19 20 19 18 17 16 15 15 16 15 15 16 16 16 18 17 16 15 14 14 15 14 12 10 10 10 10 10 9 7 6 6 6 6 6 8 8 9 9 9 8 7 6 5 4 4 3 2 2 1 1 2 3 4 5 6 7 8 9
20 20 19 19 19 20 22 23 23 22 22 22 22 24 24 23 23 22 21 21 20 18 17 18 18 18 19 19 19 19 18 18 17 17 18 17 16 17 18 17 18 18 17 15 12 9 10 11 11 10 10 9 10 10 9 8 7 8 8 7 7 8 9 10 11 11 9 8 7 6 6 6 5 4 2 1 1 2 3 4 5 6 7 9 10
21 21 22 20 20 21 21 22 22 22 22 23 23 23 24 23 23 22 22 22 20 19 18 19 19 19 19 19 18 18 18 18 17 18 19 18 17 18 19 19 19 19 18 18 16 10 7 8 10 10 9 10 10 10 9 9 8 9 10 10 9 10 10 11 12 12 11 9 8 7 8 8 7 6 4 3 3 4 5 5 6 7 8 9 10
22 22 23 22 22 23 22 21 21 21 22 22 22 23 24 24 24 22 21 22 21 21 20 19 19 20 19 19 19 19 19 18 17 18 19 19 19 20 21 20 20 20 19 19 18 15 10 8 10 11 10 11 11 10 10 9 8 9 10 11 12 11 11 12 12 13 13 12 10 9 9 9 9 8 6 6 6 6 6 6 7 8 8 9 10
24 24 23 22 24 24 23 22 21 21 21 21 21 23 24 23 23 21 20 21 21 21 21 20 21 21 21 20 19 19 20 19 19 19 19 20 20 21 22 22 21 21 21 20 19 17 14 12 11 11 12 12 12 11 10 8 7 7 9 11 12 11 11 12 12 13 13 13 12 11 10 10 10 10 9 9 9 8 8 8 9 9 10 10 11
25 25 24 24 25 24 22 22 22 21 21 21 21 21 22 22 22 21 20 21 21 20 20 20 21 21 20 19 19 19 20 21 21 21 20 20 20 20 22 23 22 22 21 21 20 18 17 16 14 13 12 13 14 13 11 9 8 8 9 10 11 11 11 12 12 13 13 13 14 13 13 13 13 13 12 12 12 11 11 11 12 12 12 13 13
26 25 24 24 24 23 23 22 22 22 21 21 20 19 19 20 21 20 21 21 20 19 19 20 20 20 20 19 19 19 20 21 22 22 22 21 20 20 22 23 22 22 21 20 20 18 17 17 16 16 15 14 14 14 13 12 10 10 10 11 12 12 11 12 12 12 12 13 14 15 15 15 15 16 15 15 14 14 14 15 15 15 15 16 17
28 25 23 24 24 24 24 23 22 22 21 20 19 19 18 18 19 19 20 20 19 18 18 19 19 18 19 19 19 19 20 21 22 22 22 23 21 21 22 23 22 22 22 21 19 19 19 18 17 19 19 18 17 16 16 14 12 12 12 12 13 13 12 13 13 12 12 13 15 15 16 16 17 18 17 17 16 16 17 17 18 18 19 19 20
27 24 25 26 25 25 24 23 22 21 21 20 19 18 18 18 18 18 18 18 17 17 18 18 17 17 18 19 18 19 20 21 21 21 21 22 22 21 22 23 22 23 24 24 21 20 21 21 19 19 20 20 19 17 17 17 15 14 13 13 13 13 13 14 13 12 12 13 14 15 16 17 18 20 20 19 19 19 19 20 20 21 21 21 22
26 25 26 24 22 23 23 22 22 21 20 20 19 18 18 19 19 18 18 18 17 17 17 17 17 17 18 18 17 18 19 20 19 20 21 22 22 22 22 23 23 23 24 26 24 21 23 22 19 17 17 20 20 18 18 18 18 17 16 15 15 15 15 15 15 14 14 15 15 16 17 18 19 20 22 22 22 22 22 22 22 23 24 24 24
26 27 25 19 17 20 22 22 22 21 20 20 19 18 18 18 19 18 18 19 18 17 17 17 18 17 17 16 16 16 17 17 17 17 18 20 21 21 22 21 21 21 22 23 24 23 22 21 18 16 17 20 21 20 19 19 20 20 18 17 17 16 17 18 18 17 18 18 19 19 20 20 21 22 22 23 24 24 24 24 25 26 26 27 28
27 26 23 19 19 20 22 22 22 21 20 20 19 18 17 18 18 19 19 19 18 17 17 18 18 17 16 15 14 14 14 14 15 15 16 19 20 21 21 20 19 20 21 21 23 23 21 20 19 17 19 21 22 22 20 19 18 17 16 17 18 18 18 20 20 20 20 21 21 22 22 22 24 24 25 26 26 26 27 27 28 29 29 30 30
27 25 23 22 21 22 24 24 23 21 20 20 19 16 16 17 17 18 19 19 18 17 18 19 18 16 16 15 13 12 12 12 13 14 15 17 19 21 22 19 18 20 20 20 22 22 20 19 18 18 21 23 22 21 20 17 15 15 15 17 19 19 20 22 22 21 21 22 23 23 22 21 24 25 25 26 25 25 26 27 27 29 29 30 31
28 25 24 24 24 24 26 26 24 22 21 20 18 16 15 16 17 18 18 18 18 17 17 18 17 16 16 15 13 11 12 13 14 14 15 18 19 20 20 17 16 18 20 19 18 21 21 19 18 18 21 23 22 21 20 18 16 16 16 18 19 21 22 24 24 23 23 23 24 25 22 20 23 24 24 24 24 24 25 26 27 27 28 28 29
29 27 26 26 26 26 28 28 26 24 22 20 18 16 16 16 17 17 17 17 17 17 17 17 17 17 18 16 13 12 12 14 15 16 16 18 19 18 16 15 14 16 20 20 17 18 20 19 17 18 21 23 22 22 21 20 19 19 18 19 21 23 24 26 27 26 23 22 24 26 25 23 24 25 25 24 25 25 26 27 27 28 28 28 29
30 30 29 28 27 28 30 29 28 26 24 21 19 18 17 17 17 17 17 16 16 16 17 17 18 18 18 17 14 13 12 12 13 15 14 14 16 18 17 18 15 13 15 18 17 17 17 17 18 19 21 22 21 21 21 21 20 20 20 21 21 22 23 23 23 21 20 20 22 24 25 24 24 26 26 26 26 26 26 26 26 27 28 28 29
32 32 31 30 30 31 31 30 28 27 25 23 21 19 19 18 18 18 18 17 16 16 16 16 18 19 19 17 16 14 12 11 11 12 11 11 14 16 16 16 15 12 12 13 14 14 15 16 18 18 19 19 19 18 18 18 18 18 18 19 18 18 19 19 19 19 19 20 21 23 25 25 24 26 28 27 26 27 26 26 26 27 28 28 28
33 34 33 33 33 32 30 29 29 27 26 25 23 21 20 20 19 18 19 18 16 16 16 15 16 18 18 18 18 16 13 12 11 11 11 11 11 12 12 11 11 13 13 11 11 12 12 14 15 15 15 16 16 16 15 16 17 17 17 17 17 17 18 18 18 18 18 19 21 24 27 27 26 28 30 29 29 30 29 29 29 29 30 31 31
34 36 36 36 35 33 31 29 29 28 27 26 25 23 22 22 21 20 20 19 17 17 17 16 15 16 17 18 18 16 13 12 12 11 12 12 10 10 10 10 11 14 12 9 10 11 12 13 14 14 15 15 15 16 16 17 18 19 19 18 18 19 20 20 19 20 21 22 24 25 28 28 27 29 31 31 32 33 33 32 31 32 32 32 31
35 36 36 35 34 32 31 30 29 28 28 26 25 24 24 23 23 22 21 20 19 18 18 17 16 16 17 18 17 16 14 13 13 13 13 13 12 11 10 10 11 13 11 9 11 12 12 12 13 14 15 15 16 16 17 17 18 19 18 18 18 20 21 21 21 21 22 23 23 25 27 28 27 28 30 32 33 33 33 31 30 29 28 27 25
37 36 36 35 35 33 31 30 29 29 29 27 25 24 24 24 24 23 23 22 21 20 19 18 18 18 19 18 18 17 16 15 15 14 14 12 11 10 10 10 10 9 9 9 10 11 12 13 13 13 13 14 15 16 16 17 18 20 20 20 20 21 21 22 24 24 25 25 25 27 28 27 27 28 30 32 33 33 31 29 28 27 26 26 27
39 39 39 38 36 34 33 32 31 30 29 27 25 24 23 22 22 22 23 24 23 22 20 19 19 19 19 19 18 18 17 17 16 15 14 12 11 11 10 10 10 9 8 8 8 9 11 11 11 12 12 13 15 16 17 19 20 21 22 23 24 25 25 25 26 27 27 26 25 26 28 30 30 29 30 31 34 35 33 29 27 27 26 27 27
Wind_Direction
210 202 190 188 189 188 187 186 184 180 176 174 174 172 171 175 179 183 187 190 196 200 203 210 212 212 225 231 231 36 53 55 46 41 38 32 31 52 103 118 107 102 99 98 96 94 92 89 88 86 84 83 82 81 79 78 76 75 74 74 74 75 75 76 76 76 76 76 75 72 71 69 67 65 64 63 60 60 60 60 61 62 62 59 57
202 197 190 189 189 186 187 188 189 185 181 178 177 177 179 182 184 186 189 190 195 201 206 215 224 228 228 226 230 243 20 30 28 30 31 33 37 71 125 138 126 117 109 102 97 94 90 88 86 83 83 81 78 76 74 72 71 71 69 69 70 71 73 74 74 74 74 74 73 71 70 68 65 64 62 62 61 60 59 59 58 59 60 61 60
199 199 198 195 189 187 188 188 191 189 184 182 181 182 185 187 188 188 188 192 199 209 214 220 227 233 232 228 231 239 262 312 354 19 28 37 54 95 136 146 142 132 120 111 102 95 90 86 83 81 81 78 75 72 67 64 63 62 61 60 61 64 66 68 69 69 69 70 71 70 68 66 64 62 60 59 59 59 58 57 56 55 56 57 59
202 205 203 195 186 185 187 184 189 190 186 185 185 187 189 190 192 193 193 198 207 217 221 222 225 232 236 232 232 238 247 265 318 23 42 49 80 121 140 141 142 139 130 122 114 105 98 91 85 82 78 73 70 66 61 58 55 53 52 48 49 55 59 61 64 64 64 67 70 71 69 67 63 58 56 56 55 55 55 55 55 55 55 55 56
202 202 200 192 183 180 177 172 177 184 187 188 189 192 192 193 196 195 196 198 205 216 224 226 225 233 236 229 226 232 234 228 216 73 66 72 105 125 129 127 131 136 134 131 126 121 116 108 100 91 84 72 64 61 55 51 48 49 48 45 42 46 54 58 62 63 63 65 68 72 70 65 60 54 49 50 52 51 51 52 53 54 55 56 56
197 196 196 188 182 177 170 165 164 173 183 186 189 193 194 195 195 194 193 196 202 212 223 229 229 232 232 224 221 221 215 204 169 123 106 111 116 114 117 120 125 131 133 131 130 129 126 123 119 108 103 92 77 69 52 40 37 37 38 47 49 46 53 57 63 69 69 67 63 62 64 62 57 48 43 43 45 47 47 49 50 51 54 55 56
195 196 198 191 184 178 171 167 165 169 175 180 185 190 195 195 192 192 194 196 201 210 219 228 230 230 228 222 215 205 195 186 158 137 129 125 117 113 117 122 126 129 130 130 130 131 129 128 125 120 126 126 96 72 55 41 33 22 19 36 46 48 53 54 59 68 70 67 58 51 53 54 45 38 37 35 35 43 48 47 49 50 53 56 57
199 200 203 200 191 182 178 174 174 176 177 180 184 190 194 194 192 195 201 202 203 210 217 222 223 223 220 215 201 191 186 170 155 144 134 124 118 119 122 125 128 130 130 129 128 126 123 122 126 130 141 135 99 82 72 68 61 39 15 23 35 39 46 52 50 56 58 56 53 46 39 38 33 27 32 32 29 37 47 50 52 54 57 59 59
203 203 203 203 197 189 187 184 183 186 187 186 189 194 197 197 196 200 209 214 215 215 215 211 210 212 208 199 190 184 177 163 156 150 136 126 121 124 127 129 132 133 133 131 128 127 125 126 132 143 147 128 110 105 97 89 83 80 58 36 30 27 33 38 36 41 35 34 47 40 33 42 42 29 32 35 30 35 44 48 53 61 62 58 55
205 206 203 202 200 198 199 198 195 193 194 195 194 199 205 205 206 207 206 218 229 222 212 204 199 203 200 189 188 184 168 161 162 151 139 132 130 132 133 136 138 138 138 136 133 130 130 131 134 141 139 122 113 108 102 99 94 88 74 48 31 31 41 38 21 23 36 53 47 32 35 55 57 45 49 57 53 50 49 47 52 59 60 57 54
206 206 206 203 202 205 209 214 215 204 199 203 204 205 209 212 217 216 203 206 226 222 207 200 193 195 195 186 186 182 166 165 165 154 146 141 143 144 144 147 148 146 143 139 135 128 129 130 127 125 121 116 111 107 105 105 99 87 68 49 38 43 58 67 70 80 93 107 61 40 55 73 76 74 71 70 64 64 66 58 56 59 62 67 65
206 207 207 206 206 211 215 220 224 214 203 207 211 212 216 217 217 217 205 194 206 211 205 199 191 188 187 186 187 180 173 174 168 163 159 157 157 154 155 162 164 157 150 148 140 128 131 128 118 113 110 109 109 111 114 111 99 83 68 60 53 51 56 70 86 101 113 111 90 79 83 87 88 81 69 60 55 67 79 73 72 76 76 76 69
206 207 207 209 211 215 217 218 221 215 210 214 217 216 219 220 212 209 206 193 192 200 202 197 189 184 180 182 189 187 186 183 175 173 170 170 170 165 168 173 170 164 163 163 148 131 129 123 110 104 105 106 108 111 113 108 93 84 79 74 69 63 61 70 85 100 111 112 105 96 92 89 82 69 58 52 50 68 84 85 87 88 77 69 65
206 208 208 211 214 214 214 215 216 212 213 218 218 215 214 215 206 201 200 195 195 196 195 194 189 186 182 179 186 191 197 195 183 179 176 174 174 172 172 170 169 171 175 173 157 142 136 124 107 101 102 103 104 106 108 93 75 80 88 90 85 77 70 76 92 102 104 104 102 97 91 81 70 60 56 54 54 64 74 77 78 74 64 64 65
207 209 210 212 212 211 210 212 212 209 213 214 212 212 211 211 208 203 199 194 197 197 195 199 196 191 182 177 186 190 191 198 194 185 180 173 169 170 171 170 175 178 181 175 157 149 147 133 115 104 101 99 101 101 100 80 65 72 85 100 106 104 100 100 104 105 102 99 96 89 81 71 65 63 63 63 63 63 63 64 64 62 62 63 62
207 209 210 211 212 211 210 211 211 211 215 210 207 210 211 212 210 208 206 199 197 196 197 204 208 204 189 177 183 187 186 195 195 187 182 176 169 167 168 174 179 180 182 176 154 146 147 139 123 107 98 97 100 97 87 72 66 75 94 105 111 116 117 112 106 103 100 96 91 83 78 74 72 69 66 63 59 57 57 56 54 53 52 52 51
208 211 210 211 213 210 208 210 211 213 216 212 209 211 214 216 215 212 214 213 206 200 199 204 210 218 215 195 183 190 194 190 188 186 183 180 175 169 171 179 182 182 186 180 161 146 140 136 120 108 110 105 100 89 75 64 71 87 105 113 110 110 108 102 102 105 103 98 94 91 88 84 78 69 62 57 52 49 47 44 43 41 41 39 38
209 213 212 213 214 210 209 209 210 215 217 213 211 212 216 217 218 218 219 222 219 212 208 205 204 212 226 223 209 216 206 186 178 180 180 181 179 175 178 184 181 184 191 185 167 154 146 146 133 131 137 116 89 62 44 48 100 108 113 114 110 108 109 109 112 110 107 106 104 101 96 88 79 69 62 57 52 48 45 42 40 37 36 35 34
209 212 211 212 214 213 215 213 212 219 220 216 212 213 217 218 219 223 222 222 222 222 219 210 203 203 215 223 223 237 215 192 183 178 176 180 182 181 183 186 184 187 193 184 163 147 141 154 160 170 182 145 59 10 23 120 127 123 120 117 115 114 115 120 122 119 118 115 111 104 94 86 78 73 70 66 62 57 54 51 48 45 43 42 42
211 211 209 211 216 215 216 217 219 221 221 219 214 211 215 217 219 220 221 222 222 225 227 219 210 204 205 213 216 224 210 202 197 188 182 177 178 184 185 184 189 192 191 181 156 122 112 152 171 180 207 260 271 267 173 148 136 127 124 124 123 123 124 127 132 130 126 121 112 101 91 85 81 77 74 69 65 60 57 55 54 53 51 50 49
215 212 209 213 217 214 213 217 220 219 218 216 213 210 212 216 219 218 217 219 220 224 228 227 222 211 203 205 208 209 201 201 202 201 196 182 179 185 184 183 189 194 195 188 169 139 133 165 174 177 191 290 265 214 170 151 140 130 127 133 134 136 138 140 140 134 127 120 112 103 95 89 83 76 72 68 64 60 57 56 54 54 53 52 50
216 212 210 216 219 212 210 216 219 218 215 211 211 210 211 214 218 220 218 215 217 220 223 228 227 215 206 205 206 206 200 199 200 202 204 197 188 186 185 186 189 193 197 194 185 177 173 174 163 144 114 331 227 183 167 153 143 136 140 150 149 150 149 144 141 136 129 122 115 108 99 89 80 72 67 63 60 58 56 55 53 51 50 48 46
212 210 211 219 222 214 213 219 219 217 214 210 212 213 212 213 216 218 217 215 216 218 219 222 223 217 210 209 211 214 212 206 204 204 205 204 197 189 187 190 194 198 200 194 190 195 191 177 154 109 42 320 204 174 167 158 148 141 159 171 167 163 154 146 144 140 135 131 123 111 98 89 79 71 66 62 61 61 60 59 56 53 50 48 44
210 211 214 219 222 219 218 221 218 214 213 210 211 213 213 213 215 215 216 216 218 219 219 217 218 218 214 211 213 217 226 225 216 211 210 210 209 198 191 191 196 204 208 198 192 199 200 185 168 133 41 337 208 181 173 168 159 157 182 193 184 171 158 150 149 147 145 137 127 119 109 99 85 76 69 63 61 60 59 58 56 54 50 47 42
210 213 218 219 221 221 220 220 217 213 213 211 209 210 212 213 214 215 215 216 218 219 218 216 215 218 218 216 215 214 224 232 225 219 215 213 214 208 198 194 197 206 213 208 201 203 201 194 191 188 169 314 204 186 181 182 177 177 197 211 199 181 167 161 159 155 152 146 139 136 124 107 92 81 69 60 55 51 50 46 42 39 36 33 30
212 212 218 220 221 222 221 220 217 213 213 212 208 207 212 214 214 215 216 217 220 219 216 216 215 216 219 219 218 216 222 227 224 223 219 213 215 216 206 197 200 213 218 210 208 212 208 200 199 199 203 215 204 193 189 198 200 193 207 222 210 192 178 172 170 167 166 166 164 157 138 119 102 88 73 61 54 48 45 40 36 33 30 28 25
211 213 217 220 221 221 221 219 217 215 213 211 209 209 212 215 214 215 217 218 220 219 216 216 214 213 216 219 220 219 220 221 220 224 224 220 222 225 216 202 199 210 219 214 213 218 221 217 208 201 204 207 203 201 199 205 211 204 215 230 216 201 191 183 181 182 182 181 179 170 149 129 107 92 80 67 58 49 45 40 35 31 28 26 23
211 215 220 224 223 221 219 216 214 214 213 212 212 213 214 213 213 215 216 217 218 215 212 213 214 212 214 218 221 220 219 218 219 223 225 226 230 230 225 217 206 203 209 216 219 221 223 225 219 207 202 201 201 207 208 210 214 211 220 236 223 208 200 194 193 193 193 191 186 176 154 134 116 101 88 75 64 54 46 37 29 24 21 18 15
212 217 225 227 222 219 219 216 212 212 215 214 213 215 215 212 213 214 215 215 217 214 208 210 216 216 217 220 221 222 222 220 220 222 223 228 233 230 228 231 226 215 212 217 224 227 227 225 219 210 205 201 199 205 212 213 214 216 225 236 229 217 210 207 207 205 202 199 195 186 173 161 143 122 102 87 72 55 41 27 16 11 8 5 4
207 210 222 227 219 214 217 217 213 211 214 214 212 215 214 211 211 213 213 215 218 215 206 210 218 219 219 221 222 222 223 223 224 224 223 227 232 230 230 235 236 233 231 232 237 238 234 226 212 205 207 208 205 205 210 217 217 219 226 234 231 224 220 218 218 218 214 209 205 200 195 192 186 172 150 110 68 29 12 1 357 354 354 354 353
202 201 213 222 216 211 213 216 213 211 213 213 212 213 211 210 210 211 212 214 218 217 210 211 216 217 218 219 218 217 219 223 226 226 224 226 228 228 230 233 236 238 241 245 249 248 238 223 206 200 203 209 213 210 211 220 223 222 224 229 231 229 228 227 226 227 224 220 216 213 210 212 211 208 208 234 303 324 329 331 333 337 341 343 343
205 203 207 212 213 212 211 212 210 207 211 213 211 210 209 210 211 210 212 212 213 214 213 214 214 214 217 217 215 215 216 220 224 225 223 224 226 227 229 232 233 235 239 241 245 255 255 223 205 203 206 211 216 220 223 230 231 227 224 225 230 233 236 235 233 232 231 229 227 222 220 221 223 226 235 256 277 290 300 308 315 322 328 332 334
210 210 207 205 208 210 208 210 209 206 209 211 209 208 209 212 212 211 212 213 212 211 212 214 215 214 216 216 216 215 215 218 221 223 223 223 226 227 228 230 229 229 232 233 237 247 257 237 211 205 210 218 222 224 228 233 238 235 230 229 233 238 242 242 240 238 236 235 235 232 230 229 229 234 243 254 265 272 280 290 299 305 310 316 320
211 212 208 205 208 210 206 207 209 208 209 210 208 208 209 211 214 213 212 213 212 211 212 214 217 216 215 215 216 217 218 221 222 222 223 225 226 226 227 229 228 227 225 227 234 241 248 248 231 213 210 218 226 226 226 233 241 244 243 241 244 249 252 252 248 245 242 240 239 239 238 237 237 239 244 248 254 259 266 275 283 290 295 299 304
207 208 208 208 210 211 208 207 209 209 210 210 209 208 208 210 213 212 213 214 213 212 212 213 215 217 217 217 217 219 221 223 224 223 224 225 228 230 229 228 228 227 225 229 236 237 241 248 246 235 224 221 226 227 228 235 240 243 246 247 252 257 258 257 253 248 246 245 244 244 242 241 241 242 244 246 249 253 259 266 273 279 285 290 295
201 203 208 209 210 211 211 209 209 210 210 210 208 208 209 210 210 212 215 215 214 214 215 214 215 217 220 221 221 221 222 223 224 223 223 225 229 232 232 230 227 227 228 232 234 234 239 245 248 248 243 236 232 229 229 236 240 242 244 243 246 251 252 252 250 247 246 248 249 247 245 244 243 242 242 243 247 253 258 264 270 275 281 286 290
201 202 208 209 206 210 213 211 209 210 210 209 208 208 209 208 208 212 215 215 214 216 216 214 215 218 221 224 225 224 224 224 224 224 224 227 229 232 235 233 229 227 227 228 230 234 238 244 251 252 249 244 240 234 230 234 239 242 243 241 239 240 242 242 242 242 243 247 250 251 249 246 243 242 242 244 250 256 262 267 272 276 280 283 286
205 204 209 209 203 205 210 211 211 211 210 209 210 211 210 208 208 210 212 213 213 215 215 215 216 220 223 225 226 226 227 228 227 226 226 227 227 230 235 235 230 228 227 225 227 232 237 245 253 250 245 243 243 240 233 232 239 245 245 244 239 236 236 236 237 240 244 248 253 255 256 253 249 246 247 250 255 261 266 271 274 277 280 282 284
210 207 207 207 204 204 205 207 209 209 208 208 209 211 211 209 209 208 209 211 212 213 215 216 216 219 222 224 225 226 228 231 231 230 228 226 226 229 234 236 232 231 229 225 225 230 237 244 246 238 237 241 243 244 238 233 237 243 244 245 245 244 244 245 247 250 253 255 257 258 259 259 257 254 254 257 262 267 271 275 278 280 282 282 283
217 214 205 203 212 211 205 204 205 203 203 204 204 205 207 207 208 208 208 210 212 212 212 212 213 215 217 219 222 224 229 234 237 237 232 227 226 229 232 235 233 232 231 227 227 232 238 239 233 227 234 240 240 242 241 234 234 239 242 247 253 256 258 260 261 263 264 265 267 268 266 264 264 264 264 266 269 273 275 278 281 282 283 283 284
221 219 207 207 218 215 208 206 202 197 196 198 197 196 199 202 205 207 209 211 212 211 209 208 208 210 211 212 214 218 225 232 235 237 234 229 227 229 230 232 233 230 226 224 225 228 232 232 227 226 233 238 240 241 240 237 238 244 248 253 259 263 265 267 268 269 270 273 274 275 272 271 271 270 269 270 272 275 277 278 280 281 282 283 283
222 217 211 216 220 215 211 208 200 194 193 194 193 193 194 197 200 204 209 212 212 209 208 207 207 206 206 204 205 211 219 225 225 228 231 229 228 230 230 231 236 233 224 220 224 227 229 230 228 228 232 236 239 241 240 242 248 254 256 257 262 266 266 268 270 269 272 276 278 277 273 273 276 274 271 270 271 273 275 277 277 278 279 278 278
219 214 213 220 220 212 211 208 200 195 194 195 195 196 196 196 198 203 206 208 209 207 207 207 207 206 203 200 202 211 219 220 217 219 224 226 227 231 231 231 238 237 224 217 223 229 230 232 233 234 235 236 239 241 241 244 249 253 257 262 267 269 268 269 270 271 273 275 277 276 271 269 273 272 268 268 271 272 274 276 277 277 277 276 277
214 213 215 218 214 207 206 206 203 199 196 197 196 195 195 197 198 200 200 204 206 206 207 209 210 209 206 204 208 213 216 217 215 218 223 224 223 226 226 224 230 231 222 218 225 231 232 235 239 239 236 237 242 244 244 247 250 253 257 260 264 268 269 271 272 273 276 276 276 274 270 268 270 271 269 271 273 274 275 276 276 276 276 276 276
210 213 214 211 207 204 204 205 205 203 200 197 193 189 189 190 193 194 196 199 202 202 206 209 211 210 209 210 214 214 212 214 218 223 229 230 230 229 222 215 215 218 219 221 228 232 230 231 236 240 240 241 244 243 241 242 245 248 251 253 255 258 262 264 266 268 270 271 271 271 269 269 271 273 273 273 275 275 275 275 275 275 276 276 278
207 210 208 203 203 204 205 206 209 208 203 197 194 191 187 185 187 191 195 198 198 199 202 207 212 214 213 213 215 213 210 211 217 224 230 234 237 235 226 214 208 208 212 215 221 224 221 222 228 234 238 238 236 234 232 233 236 241 245 248 248 249 251 253 256 257 259 261 265 269 272 273 274 274 275 277 279 278 278 278 278 278 280 282 284
205 206 200 198 203 206 208 209 211 211 207 202 200 197 192 188 188 191 197 201 200 198 198 203 209 212 211 210 210 212 214 215 217 222 227 233 237 235 229 222 214 214 211 201 200 207 210 214 219 221 222 224 224 227 231 233 238 242 244 246 248 250 251 252 253 256 261 266 271 274 276 278 279 281 283 285 286 285 285 286 285 285 285 286 287
204 204 200 200 203 206 207 208 209 209 206 203 203 202 198 194 193 196 201 205 204 199 196 198 200 201 200 202 206 212 217 219 221 225 231 238 241 237 233 232 233 232 226 208 202 208 209 212 217 220 223 226 230 235 240 244 249 253 253 253 257 264 267 267 268 270 273 276 278 280 283 286 288 288 289 290 290 289 289 289 288 288 286 285 285
203 204 203 200 199 201 203 202 203 202 199 196 197 199 200 200 200 201 205 208 208 203 199 199 199 198 197 200 206 213 218 223 227 231 234 237 241 243 239 236 239 243 240 230 224 224 226 228 229 231 235 239 243 247 251 254 259 265 268 267 269 272 275 279 282 283 284 286 287 288 291 294 295 294 293 293 291 290 290 289 287 285 284 282 281
202 200 196 192 191 195 197 196 196 196 193 188 188 191 195 200 204 205 206 208 210 208 205 203 204 204 204 205 208 214 221 226 229 231 231 232 236 241 239 233 234 235 232 227 225 226 233 239 240 242 247 252 257 262 266 268 271 275 279 281 282 282 283 286 289 290 292 293 294 293 293 293 293 293 293 293 292 290 290 290 288 287 285 284 284
198 192 187 186 187 188 189 189 189 190 188 183 182 186 190 194 200 204 205 207 210 211 210 207 205 205 207 209 211 215 221 225 226 224 222 221 225 232 234 232 231 226 220 218 217 220 229 237 243 250 255 260 265 269 272 275 277 279 281 283 286 288 290 291 292 293 293 293 293 292 291 291 292 293 295 296 295 294 294 295 294 292 290 288 287